| time (UTC) | temp F | wind direction | speed knots | gust knots | rain 1hr in | rain 24hr in | rain mn in | humidity % | barometer mb |
| 20260508091607 | 34 | 0 | 0.0 | 0.0 | 0.00 | 0.00 | 0.00 | 92 | 1015.6 |
| 20260508090056 | 34 | 0 | 0.0 | 0.0 | 0.00 | 0.00 | 0.00 | 92 | 1015.5 |
| 20260508084608 | 35 | 0 | 0.0 | 0.0 | 0.00 | 0.00 | 0.00 | 92 | 1015.5 |
| 20260508083107 | 35 | 0 | 0.0 | 0.0 | 0.00 | 0.00 | 0.00 | 91 | 1015.5 |
| 20260508081554 | 35 | 0 | 0.0 | 0.0 | 0.00 | 0.00 | 0.00 | 91 | 1015.3 |
| 20260508080106 | 35 | 0 | 0.0 | 0.0 | 0.00 | 0.00 | 0.00 | 91 | 1015.3 |
| 20260508074554 | 35 | 0 | 0.0 | 0.0 | 0.00 | 0.00 | 0.00 | 91 | 1015.4 |
| 20260508073103 | 36 | 0 | 0.0 | 0.0 | 0.00 | 0.00 | 0.00 | 90 | 1015.3 |
| 20260508071552 | 36 | 0 | 0.0 | 0.0 | 0.00 | 0.00 | 0.00 | 90 | 1015.3 |
| 20260508070054 | 36 | 0 | 0.0 | 0.0 | 0.00 | 0.00 | 0.00 | 90 | 1015.4 |
| 20260508064558 | 37 | 0 | 0.0 | 0.0 | 0.00 | 0.00 | 0.00 | 89 | 1015.6 |
| 20260508063054 | 37 | 0 | 0.0 | 0.0 | 0.00 | 0.00 | 0.00 | 88 | 1015.6 |
| 20260508061552 | 37 | 0 | 0.0 | 0.0 | 0.00 | 0.00 | 0.00 | 89 | 1015.4 |
| 20260508060058 | 38 | 0 | 0.0 | 0.0 | 0.00 | 0.00 | 0.00 | 88 | 1015.4 |
| 20260508054559 | 38 | 0 | 0.0 | 0.0 | 0.00 | 0.00 | 0.00 | 86 | 1015.5 |
| 20260508053055 | 38 | 0 | 0.0 | 0.0 | 0.00 | 0.00 | 0.00 | 85 | 1015.6 |
| 20260508051553 | 39 | 0 | 0.0 | 0.0 | 0.00 | 0.00 | 0.00 | 86 | 1015.6 |
| 20260508050104 | 39 | 0 | 0.0 | 0.0 | 0.00 | 0.00 | 0.00 | 84 | 1015.6 |
| 20260508044555 | 40 | 0 | 0.0 | 0.0 | 0.00 | 0.00 | 0.00 | 82 | 1015.6 |
| 20260508043101 | 41 | 0 | 0.0 | 0.0 | 0.00 | 0.00 | 0.00 | 81 | 1015.7 |
| 20260508041601 | 41 | 0 | 0.0 | 0.0 | 0.00 | 0.00 | 0.00 | 79 | 1015.5 |
| 20260508034555 | 43 | 0 | 0.0 | 0.0 | 0.00 | 0.00 | 0.00 | 75 | 1015.3 |
| 20260508033054 | 44 | 0 | 0.0 | 0.0 | 0.00 | 0.00 | 0.00 | 74 | 1015.4 |
| 20260508031556 | 44 | 0 | 0.0 | 0.0 | 0.00 | 0.00 | 0.00 | 71 | 1015.4 |
| 20260508030057 | 45 | 0 | 0.0 | 0.0 | 0.00 | 0.00 | 0.00 | 67 | 1015.2 |
| 20260508024558 | 46 | 0 | 0.0 | 0.0 | 0.00 | 0.00 | 0.00 | 65 | 1015.0 |
| 20260508023051 | 47 | 0 | 0.0 | 0.9 | 0.00 | 0.00 | 0.00 | 64 | 1014.9 |
| 20260508021555 | 47 | 0 | 0.0 | 0.0 | 0.00 | 0.00 | 0.00 | 60 | 1014.7 |
| 20260508020056 | 48 | 0 | 0.0 | 0.0 | 0.00 | 0.00 | 0.00 | 59 | 1014.5 |
| 20260508014552 | 49 | 0 | 0.0 | 0.0 | 0.00 | 0.00 | 0.00 | 58 | 1014.4 |
| 20260508013053 | 50 | 0 | 0.0 | 0.9 | 0.00 | 0.00 | 0.00 | 60 | 1014.2 |
| 20260508011552 | 51 | 360 | 0.0 | 0.9 | 0.00 | 0.00 | 0.00 | 56 | 1014.1 |
| 20260508010053 | 53 | 0 | 0.0 | 0.0 | 0.00 | 0.00 | 0.00 | 48 | 1013.9 |
| 20260508004558 | 55 | 0 | 0.0 | 2.6 | 0.00 | 0.00 | 0.00 | 46 | 1013.8 |
| 20260508003053 | 56 | 0 | 0.9 | 7.0 | 0.00 | 0.00 | 0.00 | 39 | 1013.7 |
| 20260508001555 | 56 | 360 | 0.9 | 7.0 | 0.00 | 0.00 | 0.00 | 39 | 1013.5 |
| 20260508000100 | 57 | 360 | 1.7 | 7.0 | 0.00 | 0.00 | 0.00 | 36 | 1013.2 |
| 20260507234602 | 59 | 360 | 1.7 | 5.2 | 0.00 | 0.00 | 0.00 | 34 | 1013.0 |
| 20260507233116 | 60 | 360 | 3.5 | 7.8 | 0.00 | 0.00 | 0.00 | 33 | 1012.9 |
| 20260507231600 | 60 | 360 | 2.6 | 7.8 | 0.00 | 0.00 | 0.00 | 34 | 1012.8 |
| 20260507230054 | 60 | 360 | 2.6 | 11.3 | 0.00 | 0.00 | 0.00 | 34 | 1012.7 |
| 20260507224554 | 61 | 360 | 4.3 | 10.4 | 0.00 | 0.00 | 0.00 | 34 | 1012.6 |
| 20260507223101 | 61 | 360 | 3.5 | 13.0 | 0.00 | 0.00 | 0.00 | 35 | 1012.5 |
| 20260507221554 | 61 | 360 | 2.6 | 9.6 | 0.00 | 0.00 | 0.00 | 36 | 1012.3 |
| 20260507220057 | 61 | 360 | 1.7 | 7.0 | 0.00 | 0.00 | 0.00 | 38 | 1012.3 |
| 20260507214551 | 61 | 360 | 2.6 | 9.6 | 0.00 | 0.00 | 0.00 | 39 | 1012.1 |
| 20260507213056 | 61 | 360 | 0.9 | 9.6 | 0.00 | 0.00 | 0.00 | 40 | 1012.0 |
| 20260507211602 | 62 | 360 | 4.3 | 10.4 | 0.00 | 0.00 | 0.00 | 40 | 1011.9 |
| 20260507210112 | 62 | 13 | 4.3 | 12.2 | 0.00 | 0.00 | 0.00 | 38 | 1011.7 |
| 20260507204556 | 62 | 360 | 2.6 | 9.6 | 0.00 | 0.00 | 0.00 | 39 | 1011.6 |
| 20260507203055 | 61 | 360 | 2.6 | 7.8 | 0.00 | 0.00 | 0.00 | 42 | 1011.7 |
| 20260507201558 | 62 | 360 | 2.6 | 7.8 | 0.00 | 0.00 | 0.00 | 44 | 1011.8 |
| 20260507200103 | 61 | 360 | 2.6 | 9.6 | 0.00 | 0.00 | 0.00 | 40 | 1011.8 |
| 20260507194600 | 60 | 360 | 2.6 | 8.7 | 0.00 | 0.00 | 0.00 | 43 | 1012.1 |
| 20260507193055 | 61 | 360 | 3.5 | 13.9 | 0.00 | 0.00 | 0.00 | 43 | 1012.1 |
| 20260507191552 | 62 | 360 | 2.6 | 7.8 | 0.00 | 0.00 | 0.00 | 43 | 1012.3 |
| 20260507184554 | 60 | 360 | 2.6 | 7.8 | 0.00 | 0.00 | 0.00 | 44 | 1012.5 |
| 20260507183113 | 60 | 360 | 1.7 | 8.7 | 0.00 | 0.00 | 0.00 | 46 | 1012.6 |
| 20260507181558 | 61 | 0 | 0.9 | 8.7 | 0.00 | 0.00 | 0.00 | 45 | 1012.4 |
| 20260507180053 | 61 | 360 | 2.6 | 7.0 | 0.00 | 0.00 | 0.00 | 43 | 1012.5 |
| 20260507174602 | 61 | 360 | 2.6 | 13.9 | 0.00 | 0.00 | 0.00 | 42 | 1012.6 |
| 20260507173055 | 62 | 360 | 0.9 | 9.6 | 0.00 | 0.00 | 0.00 | 46 | 1012.8 |
| 20260507171556 | 61 | 360 | 2.6 | 9.6 | 0.00 | 0.00 | 0.00 | 48 | 1012.9 |
| 20260507170059 | 62 | 360 | 1.7 | 5.2 | 0.00 | 0.00 | 0.00 | 50 | 1013.1 |
| 20260507164628 | 60 | 360 | 0.9 | 7.0 | 0.00 | 0.00 | 0.00 | 48 | 1013.2 |
| 20260507163103 | 60 | 360 | 1.7 | 5.2 | 0.00 | 0.00 | 0.00 | 50 | 1013.4 |
| 20260507161600 | 58 | 360 | 1.7 | 8.7 | 0.00 | 0.00 | 0.00 | 49 | 1013.4 |
| 20260507160057 | 59 | 360 | 1.7 | 8.7 | 0.00 | 0.00 | 0.00 | 48 | 1013.6 |
| 20260507154559 | 58 | 360 | 0.9 | 7.8 | 0.00 | 0.01 | 0.00 | 52 | 1013.6 |
| 20260507153056 | 59 | 360 | 1.7 | 7.0 | 0.00 | 0.01 | 0.00 | 49 | 1013.7 |
| 20260507151552 | 58 | 360 | 0.9 | 7.0 | 0.00 | 0.01 | 0.00 | 51 | 1013.7 |
| 20260507150054 | 58 | 360 | 1.7 | 7.0 | 0.00 | 0.01 | 0.00 | 52 | 1013.8 |
| 20260507144553 | 58 | 360 | 1.7 | 3.5 | 0.00 | 0.02 | 0.00 | 54 | 1013.9 |
| 20260507143051 | 57 | 360 | 1.7 | 4.3 | 0.00 | 0.02 | 0.00 | 59 | 1013.9 |
| 20260507141551 | 57 | 360 | 0.9 | 4.3 | 0.00 | 0.02 | 0.00 | 56 | 1014.1 |
| 20260507140053 | 56 | 360 | 2.6 | 4.3 | 0.00 | 0.02 | 0.00 | 55 | 1014.3 |
| 20260507134550 | 55 | 360 | 1.7 | 8.7 | 0.00 | 0.04 | 0.00 | 57 | 1014.5 |
| 20260507133053 | 55 | 360 | 1.7 | 3.5 | 0.00 | 0.04 | 0.00 | 63 | 1014.6 |
| 20260507131600 | 54 | 78 | 0.9 | 3.5 | 0.00 | 0.04 | 0.00 | 64 | 1014.8 |
| 20260507130055 | 52 | 0 | 0.0 | 2.6 | 0.00 | 0.04 | 0.00 | 73 | 1014.8 |
| 20260507124601 | 49 | 0 | 0.0 | 0.0 | 0.00 | 0.09 | 0.00 | 85 | 1014.7 |
| 20260507123051 | 48 | 0 | 0.0 | 0.0 | 0.00 | 0.09 | 0.00 | 92 | 1014.7 |
| 20260507121556 | 47 | 0 | 0.0 | 0.0 | 0.00 | 0.09 | 0.00 | 93 | 1014.7 |
| 20260507120054 | 46 | 0 | 0.0 | 0.0 | 0.00 | 0.09 | 0.00 | 93 | 1014.9 |
| 20260507114606 | 46 | 0 | 0.0 | 0.0 | 0.00 | 0.18 | 0.00 | 93 | 1014.8 |
| 20260507113119 | 45 | 0 | 0.0 | 0.0 | 0.00 | 0.18 | 0.00 | 93 | 1014.6 |
| 20260507111557 | 45 | 0 | 0.0 | 1.7 | 0.00 | 0.18 | 0.00 | 93 | 1014.3 |
| 20260507110056 | 45 | 0 | 0.0 | 0.9 | 0.00 | 0.18 | 0.00 | 92 | 1014.2 |
| 20260507104550 | 44 | 0 | 0.0 | 0.0 | 0.00 | 0.28 | 0.00 | 91 | 1014.0 |
| 20260507103054 | 44 | 0 | 0.0 | 0.0 | 0.00 | 0.28 | 0.00 | 91 | 1013.9 |
| 20260507101551 | 44 | 0 | 0.0 | 0.0 | 0.00 | 0.28 | 0.00 | 91 | 1013.7 |
| 20260507100057 | 45 | 0 | 0.0 | 0.0 | 0.00 | 0.28 | 0.00 | 90 | 1013.9 |
| 20260507094554 | 45 | 0 | 0.0 | 0.0 | 0.00 | 0.47 | 0.00 | 89 | 1013.9 |
| 20260507093054 | 45 | 0 | 0.0 | 0.0 | 0.00 | 0.47 | 0.00 | 88 | 1013.9 |